Window Rock, AZ

9:28 AM MST on December 07, 2016 (GMT -0700)
Window Rock

Weather History for KRQE - October, 2011

Change the Weather History Date:

Sunday, October 30, 2011

  Actual Average Record
Temperature  
Mean Temperature 44 °F -  
Max Temperature 64 °F 57 °F 76 °F (1964)
Min Temperature 25 °F 27 °F 14 °F (1971)
Degree Days  
Heating Degree Days 20    
Moisture  
Dew Point 23 °F    
Average Humidity 53    
Maximum Humidity 85    
Minimum Humidity 19    
Precipitation  
Precipitation 0.01 in - - ()
Sea Level Pressure  
Sea Level Pressure 30.19 in    
Wind  
Wind Speed 1 mph (NNE)    
Max Wind Speed 7 mph    
Max Gust Speed -    
Visibility 10 miles    
Events      
Averages and records for this station are not official NWS values.
T = Trace of Precipitation, MM = Missing Value Source: NWS Daily Summary

Daily Weather History Graph

Daily Weather History Graph

Search for Another Location

Airport or City:

Trip Planner

Search our weather history database for the weather conditions in past years. The results will help you decide how hot, cold, wet, or windy it might be!

Date:

Astronomy

Oct. 30, 2011 Rise Set
Actual Time 7:36 AM MDT 6:23 PM MDT
Civil Twilight 7:09 AM MDT 6:49 PM MDT
Nautical Twilight 6:39 AM MDT 7:19 PM MDT
Astronomical Twilight 6:10 AM MDT 7:49 PM MDT
Moon 11:52 AM MDT (10/30) 10:01 PM MDT (10/30)
Length of Visible Light 11h 39m
Length of Day
10h 47m
Waxing Crescent, 20% of the Moon is Illuminated
Oct 30
Waxing Crescent
Nov 2
First Quarter
Nov 10
Full
Nov 18
Last Quarter
Nov 24
New

Hourly Weather History & Observations

Time (MDT) Temp. Windchill Dew Point Humidity Pressure Visibility Wind Dir Wind Speed Gust Speed Precip Events Conditions
12:53 AM 32.0 °F - 24.1 °F 73% 30.12 in 10.0 mi Calm Calm - N/A   Clear
1:53 AM 32.0 °F - 24.1 °F 73% 30.11 in 10.0 mi Calm Calm - N/A   Clear
2:53 AM 30.0 °F - 24.1 °F 79% 30.12 in 10.0 mi Calm Calm - N/A   Clear
3:53 AM 27.0 °F - 23.0 °F 85% 30.14 in 10.0 mi Calm Calm - N/A   Clear
4:53 AM 28.9 °F - 23.0 °F 78% 30.15 in 10.0 mi Calm Calm - N/A   Clear
5:53 AM 26.1 °F - 21.0 °F 81% 30.19 in 10.0 mi Calm Calm - N/A   Clear
6:53 AM 25.0 °F 20.7 °F 21.0 °F 85% 30.25 in 10.0 mi SSW 3.5 mph - N/A   Clear
7:53 AM 28.0 °F - 21.9 °F 78% 30.26 in 10.0 mi Calm Calm - N/A   Clear
8:53 AM 30.9 °F - 25.0 °F 79% 30.28 in 10.0 mi Calm Calm - 0.01 in   Clear
9:53 AM 41.0 °F - 25.0 °F 53% 30.25 in 10.0 mi Calm Calm - N/A   Clear
10:53 AM 52.0 °F - 26.1 °F 37% 30.21 in 10.0 mi Variable 3.5 mph - N/A   Clear
11:53 AM 59.0 °F - 21.9 °F 24% 30.18 in 10.0 mi NNE 4.6 mph - N/A   Clear
12:53 PM 62.1 °F - 24.1 °F 23% 30.16 in 10.0 mi NNE 5.8 mph - N/A   Clear
1:53 PM 63.0 °F - 23.0 °F 22% 30.13 in 10.0 mi Calm Calm - N/A   Clear
2:53 PM 64.9 °F - 21.9 °F 19% 30.11 in 10.0 mi Variable 3.5 mph - N/A   Clear
3:53 PM 64.9 °F - 21.9 °F 19% 30.12 in 10.0 mi NNW 6.9 mph - N/A   Clear
4:53 PM 64.0 °F - 21.0 °F 19% 30.12 in 10.0 mi NNE 3.5 mph - N/A   Clear
5:53 PM 57.9 °F - 25.0 °F 28% 30.18 in 10.0 mi East 4.6 mph - N/A   Clear
6:53 PM 51.1 °F - 23.0 °F 33% 30.24 in 10.0 mi Calm Calm - N/A   Clear
7:53 PM 46.0 °F 43.9 °F 24.1 °F 42% 30.26 in 10.0 mi NE 4.6 mph - N/A   Clear
8:53 PM 42.1 °F - 23.0 °F 47% 30.26 in 10.0 mi Calm Calm - N/A   Clear
9:53 PM 39.0 °F - 23.0 °F 53% 30.24 in 10.0 mi Calm Calm - N/A   Clear
10:53 PM 33.1 °F - 24.1 °F 70% 30.21 in 10.0 mi Calm Calm - N/A   Clear
11:53 PM 32.0 °F - 25.0 °F 75% 30.19 in 10.0 mi Calm Calm - N/A   Clear